Regional Weather Roundup
Issued by NWS

Home | Current Version | Previous Version | Graphics & Text | Print | Product List | Glossary On
Versions: 1 2 3 4 5 6 7 8 9 10 11 12 13 14 15 16 17 18 19 20 21 22 23 24 25 26 27 28 29 30 31 32 33 34 35 36 37 38 39 40 41 42 43 44 45 46 47 48 49 50
000
ASUS43 KLMK 020810
RWRKY
KENTUCKY REGIONAL WEATHER ROUNDUP
NATIONAL WEATHER SERVICE LOUISVILLE KY
400 AM EDT TUE SEP 02 2014

NOTE "FAIR" INDICATES FEW OR NO CLOUDS BELOW 12,000 FEET
WITH NO SIGNIFICANT WEATHER AND/OR OBSTRUCTIONS TO VISIBILITY.

KYZ001>023-026-027-061>063-070>075-020900-
WESTERN AND SOUTH CENTRAL KENTUCKY

CITY           SKY/WX    TMP DP  RH WIND       PRES   REMARKS
PADUCAH        CLOUDY    79  72  79 SW8       29.94F
HENDERSON      CLOUDY    75  70  83 SW8       29.94S
OWENSBORO      NOT AVBL
HOPKINSVILLE   PTCLDY    76  72  87 SW9       29.99S
BOWLING GREEN  CLOUDY    74  68  81 S6        30.00F
GLASGOW        PTCLDY    73  67  79 S3        30.01F
$$

KYZ024-025-028>034-038-045-046-053-020900-
NORTH CENTRAL KENTUCKY

CITY           SKY/WX    TMP DP  RH WIND       PRES   REMARKS
LOUISVILLE/SDF CLOUDY    79  70  74 SW10      29.96S
LOUISVILLE/LOU CLOUDY    78  70  76 SW6       29.97S
FORT KNOX      CLOUDY    74  74  98 S9        29.97F
$$

KYZ035>037-039>044-047>052-055>060-089>105-020900-
NORTHEAST KENTUCKY

CITY           SKY/WX    TMP DP  RH WIND       PRES   REMARKS
LEXINGTON      CLOUDY    75  69  81 S8        30.01F
COVINGTON      CLOUDY    76  71  85 S7        29.97S
FRANKFORT      CLOUDY    75  69  81 SW8       29.99S
$$

KYZ054-064>069-076>088-106>120-020900-
SOUTHEAST KENTUCKY

CITY           SKY/WX    TMP DP  RH WIND       PRES   REMARKS
JACKSON        CLEAR     73  69  87 VRB3      30.06S
LONDON         PTCLDY    72  68  87 CALM      30.07S
SOMERSET       CLOUDY    72  70  94 CALM      30.06S
MIDDLESBORO    PTCLDY    68  68  99 CALM      30.09S
MONTICELLO     CLOUDY    72  70  93 CALM      30.07S
$$




USA.gov is the U.S. government's official web portal to all federal, state and local government web resources and services.